Change the Weather History Date:

Thursday, October 4, 2012

  Actual Average Record
Temperature  
Mean Temperature 64 °F -  
Max Temperature 78 °F 70 °F 86 °F (2005)
Min Temperature 52 °F 48 °F 37 °F (2014)
Growing Degree Days 14 (Base 50)    
Moisture  
Dew Point 55 °F    
Average Humidity 78    
Maximum Humidity 96    
Minimum Humidity 47    
Precipitation  
Precipitation 0.00 in - - ()
Sea Level Pressure  
Sea Level Pressure 30.19 in    
Wind  
Wind Speed 4 mph (SSW)    
Max Wind Speed 12 mph    
Max Gust Speed -    
Visibility 10 miles    
Events      
Averages and records for this station are not official NWS values.
T = Trace of Precipitation, MM = Missing Value Source: NWS Daily Summary

Daily Weather History Graph

Daily Weather History Graph

Search for Another Location

Airport or City:

Trip Planner

Search our weather history database for the weather conditions in past years. The results will help you decide how hot, cold, wet, or windy it might be!

Date:

Astronomy

Oct. 04, 2012 Rise Set
Actual Time 7:42 AM EDT 7:21 PM EDT
Civil Twilight 7:16 AM EDT 7:47 PM EDT
Nautical Twilight 6:45 AM EDT 8:18 PM EDT
Astronomical Twilight 6:15 AM EDT 8:48 PM EDT
Moon 10:01 PM EDT (10/4) 11:54 AM EDT (10/4)
Length of Visible Light 12h 31m
Length of Day
11h 38m
Waning Gibbous, 82% of the Moon is Illuminated
Oct 4
Waning Gibbous
Oct 8
Last Quarter
Oct 15
New
Oct 21
First Quarter
Oct 29
Full

Hourly Weather History & Observations

Time (EDT) Temp. Dew Point Humidity Pressure Visibility Wind Dir Wind Speed Gust Speed Precip Events Conditions
12:55 AM 55.4 °F 52.5 °F 90% 30.15 in 10.0 mi SSW 4.6 mph - N/A   Clear
1:55 AM 54.9 °F 52.0 °F 90% 30.15 in 10.0 mi South 3.5 mph - N/A   Clear
2:55 AM 55.2 °F 51.8 °F 88% 30.16 in 10.0 mi South 3.5 mph - N/A   Clear
3:55 AM 52.2 °F 50.5 °F 94% 30.17 in 10.0 mi SW 4.6 mph - N/A   Clear
4:55 AM 53.1 °F 51.1 °F 93% 30.17 in 10.0 mi Calm Calm - N/A   Clear
5:55 AM 52.3 °F 51.3 °F 96% 30.19 in 10.0 mi Calm Calm - N/A   Scattered Clouds
6:55 AM 53.1 °F 51.6 °F 95% 30.20 in 10.0 mi South 3.5 mph - N/A   Clear
7:55 AM 53.8 °F 52.0 °F 94% 30.22 in 10.0 mi SSW 4.6 mph - N/A   Clear
8:55 AM 57.2 °F 54.5 °F 91% 30.22 in 10.0 mi SSW 5.8 mph - N/A   Clear
9:55 AM 61.2 °F 56.8 °F 86% 30.24 in 10.0 mi South 6.9 mph - N/A   Clear
10:55 AM 67.3 °F 59.2 °F 75% 30.24 in 10.0 mi South 8.1 mph - N/A   Clear
11:55 AM 72.9 °F 58.5 °F 60% 30.24 in 10.0 mi SSW 8.1 mph - N/A   Clear
12:55 PM 75.4 °F 58.1 °F 55% 30.23 in 10.0 mi SSW 11.5 mph - N/A   Clear
1:55 PM 76.1 °F 56.8 °F 51% 30.22 in 10.0 mi SSW 8.1 mph - N/A   Clear
2:55 PM 77.0 °F 56.7 °F 49% 30.19 in 10.0 mi SSW 5.8 mph - N/A   Partly Cloudy
3:55 PM 77.5 °F 57.2 °F 49% 30.17 in 10.0 mi SW 8.1 mph - N/A   Clear
4:55 PM 77.4 °F 55.9 °F 47% 30.17 in 10.0 mi SW 5.8 mph - N/A   Partly Cloudy
7:55 PM 66.4 °F 56.7 °F 71% 30.17 in 10.0 mi South 3.5 mph - N/A   Clear
8:55 PM 63.1 °F 56.8 °F 80% 30.17 in 10.0 mi Calm Calm - N/A   Clear
9:55 PM 61.5 °F 56.7 °F 84% 30.17 in 10.0 mi Calm Calm - N/A   Clear
10:55 PM 60.3 °F 56.7 °F 88% 30.18 in 10.0 mi SSW 3.5 mph - N/A   Clear
11:55 PM 59.0 °F 56.7 °F 92% 30.17 in 10.0 mi SSW 3.5 mph - N/A   Clear